Location: Newark
(33.6333°S, 78.8500°W)
Time: 23:41:13
(UTC+00:00)

Courier 1B - Pass Details

Date: 01 October 2019
Orbit: 962 x 1209 km, 28.3° (Epoch: 19 October)

Event Time Altitude Azimuth Distance (km) Brightness Sun altitude
Rises 22:56:35 0° 269° (W) 4,119 14.3 3.6°
Reaches altitude 10° 22:59:40 10° 276° (W) 3,144 12.5 3.0°
Maximum altitude 23:06:50 40° 341° (NNW) 1,677 9.0 1.5°
Drops below altitude 10° 23:13:44 10° 48° (NE) 3,022 9.6 0.1°
Sets 23:16:39 0° 55° (NE) 3,943 10.1 -0.6°
